• In India
  • List of Countries
  • For 7 days
  • Water Temperature
  • Satellite Maps
  • Weather Map
  • Weather Widgets
  • user-avatar
    Login

    Hourly Weather Nassjo

    Today, 25 November, Saturday

    Time Temperature Precipitation Wind Pressure Humidity
    00:00 -1°C° 0 mm 2 mps 727 mmHg 93%
    01:00 -1°C° 0 mm 2 mps 727 mmHg 93%
    02:00 -1°C° 0 mm 2 mps 727 mmHg 93%
    03:00 -2°C° 0 mm 2 mps 727 mmHg 93%
    04:00 -2°C° 0 mm 2 mps 727 mmHg 93%
    05:00 -2°C° 0 mm 2 mps 727 mmHg 93%
    06:00 -2°C° 0 mm 2 mps 727 mmHg 94%
    07:00 -2°C° 0 mm 2 mps 727 mmHg 94%
    08:00 -1°C° 0 mm 2 mps 727 mmHg 92%
    09:00 -1°C° 0 mm 2 mps 727 mmHg 91%
    10:00 0°C° 0 mm 3 mps 727 mmHg 89%
    11:00 0°C° 0 mm 3 mps 727 mmHg 88%
    12:00 +1°C° 0 mm 3 mps 727 mmHg 86%
    13:00 +2°C° 0 mm 2 mps 727 mmHg 84%
    14:00 +2°C° 0 mm 2 mps 727 mmHg 88%
    15:00 +1°C° 0 mm 2 mps 727 mmHg 91%
    16:00 -1°C° 0 mm 2 mps 727 mmHg 94%
    17:00 -1°C° 0 mm 2 mps 727 mmHg 95%
    18:00 -1°C° 0 mm 2 mps 727 mmHg 95%
    19:00 -1°C° 0 mm 2 mps 727 mmHg 95%
    20:00 -1°C° 0 mm 2 mps 727 mmHg 95%
    21:00 -1°C° 0 mm 2 mps 727 mmHg 95%
    22:00 -1°C° 0 mm 2 mps 726 mmHg 95%
    23:00 -1°C° 0 mm 2 mps 726 mmHg 95%

    Tomorrow, 26 November, Sunday

    Time Temperature Precipitation Wind Pressure Humidity
    00:00 -2°C° 0 mm 2 mps 726 mmHg 95%
    01:00 -2°C° 0 mm 2 mps 726 mmHg 94%
    02:00 -2°C° 0 mm 2 mps 726 mmHg 93%
    03:00 -2°C° 0 mm 2 mps 726 mmHg 92%
    04:00 -2°C° 0 mm 2 mps 725 mmHg 91%
    05:00 -2°C° 0 mm 3 mps 725 mmHg 90%
    06:00 -2°C° 0 mm 3 mps 725 mmHg 88%
    07:00 -1°C° 0 mm 3 mps 724 mmHg 87%
    08:00 -1°C° 0.3 mm 4 mps 724 mmHg 86%
    09:00 -1°C° 0.3 mm 4 mps 724 mmHg 85%
    10:00 0°C° 0.3 mm 4 mps 724 mmHg 84%
    11:00 +1°C° 0 mm 4 mps 724 mmHg 82%
    12:00 +1°C° 0 mm 4 mps 724 mmHg 80%
    13:00 +3°C° 0 mm 4 mps 724 mmHg 78%
    14:00 +1°C° 0 mm 4 mps 724 mmHg 81%
    15:00 0°C° 0 mm 4 mps 724 mmHg 84%
    16:00 0°C° 0 mm 4 mps 724 mmHg 86%
    17:00 0°C° 0.1 mm 4 mps 724 mmHg 87%
    18:00 0°C° 0.1 mm 4 mps 724 mmHg 88%
    19:00 0°C° 0.1 mm 4 mps 724 mmHg 90%
    20:00 +1°C° 0.1 mm 3 mps 724 mmHg 90%
    21:00 +1°C° 0.1 mm 3 mps 724 mmHg 91%
    22:00 +1°C° 0.1 mm 3 mps 724 mmHg 92%
    23:00 +1°C° 0.2 mm 3 mps 724 mmHg 91%

    Day after tomorrow, 27 November, Monday

    Time Temperature Precipitation Wind Pressure Humidity
    00:00 +1°C° 0.2 mm 3 mps 724 mmHg 90%
    01:00 0°C° 0.2 mm 4 mps 725 mmHg 89%
    02:00 0°C° 0.1 mm 4 mps 725 mmHg 88%
    03:00 +1°C° 0.1 mm 4 mps 725 mmHg 88%
    04:00 +1°C° 0.1 mm 4 mps 725 mmHg 88%
    05:00 0°C° 0 mm 4 mps 726 mmHg 88%
    06:00 0°C° 0 mm 4 mps 726 mmHg 87%
    07:00 +1°C° 0 mm 3 mps 726 mmHg 87%
    08:00 +1°C° 0 mm 3 mps 727 mmHg 87%
    09:00 0°C° 0 mm 4 mps 727 mmHg 86%
    10:00 0°C° 0 mm 4 mps 728 mmHg 86%
    11:00 +1°C° 0 mm 4 mps 728 mmHg 84%
    12:00 +1°C° 0 mm 4 mps 728 mmHg 82%
    13:00 +1°C° 0 mm 4 mps 728 mmHg 79%
    14:00 +1°C° 0.1 mm 4 mps 727 mmHg 82%
    15:00 0°C° 0.1 mm 4 mps 727 mmHg 84%
    16:00 0°C° 0.1 mm 4 mps 726 mmHg 87%
    17:00 0°C° 0.6 mm 4 mps 725 mmHg 86%
    18:00 0°C° 0.6 mm 5 mps 724 mmHg 85%
    19:00 +1°C° 0.6 mm 5 mps 723 mmHg 85%
    20:00 +1°C° 0.7 mm 5 mps 723 mmHg 86%
    21:00 +1°C° 0.7 mm 4 mps 723 mmHg 87%
    22:00 +1°C° 0.7 mm 4 mps 722 mmHg 88%
    23:00 +1°C° 0.1 mm 4 mps 722 mmHg 87%

    28 November, Tuesday

    Time Temperature Precipitation Wind Pressure Humidity
    00:00 +1°C° 0.1 mm 4 mps 722 mmHg 87%
    01:00 +1°C° 0.1 mm 4 mps 722 mmHg 87%
    02:00 0°C° 0 mm 4 mps 722 mmHg 87%
    03:00 0°C° 0 mm 4 mps 722 mmHg 88%
    04:00 0°C° 0 mm 4 mps 722 mmHg 89%
    05:00 +1°C° 0 mm 3 mps 723 mmHg 90%
    06:00 0°C° 0 mm 3 mps 723 mmHg 91%
    07:00 0°C° 0 mm 3 mps 723 mmHg 93%
    08:00 0°C° 0 mm 3 mps 723 mmHg 93%
    09:00 +1°C° 0 mm 3 mps 723 mmHg 92%
    10:00 +1°C° 0 mm 3 mps 723 mmHg 92%
    11:00 +2°C° 0 mm 2 mps 723 mmHg 92%
    12:00 +2°C° 0 mm 2 mps 722 mmHg 91%
    13:00 +3°C° 0 mm 2 mps 722 mmHg 91%
    14:00 +3°C° 0.2 mm 1 mps 722 mmHg 92%
    15:00 +3°C° 0.2 mm 1 mps 722 mmHg 94%
    16:00 +3°C° 0.2 mm 1 mps 721 mmHg 96%
    17:00 +3°C° 0.4 mm 1 mps 721 mmHg 96%
    18:00 +3°C° 0.4 mm 1 mps 721 mmHg 96%
    19:00 +2°C° 0.4 mm 2 mps 721 mmHg 96%
    20:00 +2°C° 0.3 mm 2 mps 721 mmHg 96%
    21:00 +2°C° 0.3 mm 2 mps 720 mmHg 96%
    22:00 +2°C° 0.3 mm 2 mps 720 mmHg 96%
    23:00 +2°C° 0.7 mm 2 mps 720 mmHg 95%

    29 November, Wednesday

    Time Temperature Precipitation Wind Pressure Humidity
    00:00 +1°C° 0.7 mm 2 mps 720 mmHg 95%
    01:00 +1°C° 0.7 mm 2 mps 719 mmHg 95%
    02:00 +1°C° 1 mm 2 mps 719 mmHg 95%
    03:00 +1°C° 1 mm 2 mps 719 mmHg 95%
    04:00 -1°C° 1 mm 2 mps 719 mmHg 94%
    05:00 -1°C° 0.3 mm 2 mps 719 mmHg 94%
    06:00 -1°C° 0.3 mm 2 mps 719 mmHg 94%
    07:00 -1°C° 0.3 mm 2 mps 719 mmHg 94%
    08:00 -1°C° 0.2 mm 2 mps 719 mmHg 94%
    09:00 -1°C° 0.2 mm 2 mps 719 mmHg 93%
    10:00 -1°C° 0.2 mm 2 mps 720 mmHg 93%
    11:00 -1°C° 0.3 mm 2 mps 720 mmHg 92%
    12:00 -1°C° 0.3 mm 2 mps 720 mmHg 92%
    13:00 -1°C° 0.3 mm 2 mps 720 mmHg 92%
    14:00 -1°C° 0.4 mm 2 mps 720 mmHg 92%
    15:00 -1°C° 0.4 mm 2 mps 720 mmHg 93%
    16:00 -1°C° 0.4 mm 2 mps 720 mmHg 93%
    17:00 -1°C° 0.3 mm 2 mps 720 mmHg 93%
    18:00 -1°C° 0.3 mm 2 mps 720 mmHg 93%
    19:00 -1°C° 0.3 mm 2 mps 720 mmHg 93%
    20:00 -1°C° 0.2 mm 2 mps 720 mmHg 93%
    21:00 -2°C° 0.2 mm 2 mps 720 mmHg 93%
    22:00 -2°C° 0.2 mm 2 mps 720 mmHg 94%
    23:00 0°C° 0.1 mm 1 mps 720 mmHg 94%

    30 November, Thursday

    Time Temperature Precipitation Wind Pressure Humidity
    00:00 0°C° 0.1 mm 1 mps 720 mmHg 94%
    01:00 0°C° 0.1 mm 1 mps 720 mmHg 94%
    02:00 0°C° 0.1 mm 1 mps 720 mmHg 94%
    03:00 0°C° 0.1 mm 1 mps 720 mmHg 94%
    04:00 0°C° 0.1 mm 1 mps 720 mmHg 94%
    05:00 -1°C° 0 mm 1 mps 720 mmHg 94%
    06:00 -1°C° 0 mm 1 mps 720 mmHg 94%
    07:00 -1°C° 0 mm 1 mps 720 mmHg 94%
    08:00 -1°C° 0 mm 1 mps 720 mmHg 93%
    09:00 -2°C° 0 mm 0 mps 721 mmHg 93%
    10:00 -2°C° 0 mm 0 mps 721 mmHg 92%
    11:00 -2°C° 0 mm 0 mps 721 mmHg 89%
    12:00 -1°C° 0 mm 0 mps 721 mmHg 87%
    13:00 -1°C° 0 mm 0 mps 722 mmHg 84%
    14:00 -2°C° 0 mm 0 mps 722 mmHg 87%
    15:00 -2°C° 0 mm 0 mps 722 mmHg 89%
    16:00 -3°C° 0 mm 0 mps 722 mmHg 91%
    17:00 -3°C° 0 mm 0 mps 722 mmHg 92%
    18:00 -4°C° 0 mm 0 mps 723 mmHg 92%
    19:00 -4°C° 0 mm 0 mps 723 mmHg 92%
    20:00 -4°C° 0 mm 0 mps 723 mmHg 92%
    21:00 -4°C° 0 mm 0 mps 723 mmHg 92%
    22:00 -5°C° 0 mm 0 mps 724 mmHg 92%
    23:00 -5°C° 0 mm 0 mps 724 mmHg 92%
    Show more